Date String (YYYY-MM-DD hh:mm:ss) UTC,Instrument flags,Ambient pressure (hPa),Sample flow (lpm),Bypass flow (lpm),Sample temperature (°C),Ambient temperature (°C),ASC tube jacket temperature (°C),LED temperature (°C),Box temperature (°C),Sample RH (%),Span deviation,Mass concentration (μg/m³),Mass concentration (μg/m³),Mass concentration (μg/m³)
DateTimeUTC,F1_M11,P_M11,Q1_M11,Q2_M11,T1_M11,T2_M11,T3_M11,T4_M11,T5_M11,U1_M11,ZSPAN_M11,X0_M11,X2_M11,X1_M11
2023-01-15 07:00:00,,0814.3,5.00,0.00,23.8,22.4,00.0,32.7,25.5,12.3,0000.0,0000.58,0000.41,0000.37
2023-01-15 07:01:00,,0813.9,5.00,0.00,23.8,22.5,00.0,32.7,25.5,12.4,0000.0,0000.60,0000.42,0000.37
2023-01-15 07:02:00,,0813.9,5.00,0.00,23.8,22.4,00.0,32.7,25.5,12.2,0000.0,0000.65,0000.45,0000.39
2023-01-15 07:03:00,,0814.1,5.00,0.00,23.8,22.4,00.0,32.7,25.5,12.2,0000.0,0000.65,0000.44,0000.39
2023-01-15 07:04:00,,0814.2,4.99,0.00,23.8,22.5,00.0,32.7,25.5,12.1,0000.0,0000.65,0000.44,0000.38
2023-01-15 07:05:00,,0814.3,5.01,0.00,23.8,22.4,00.0,32.7,25.5,12.0,0000.0,0000.59,0000.43,0000.39
2023-01-15 07:06:00,,0814.2,5.00,0.00,23.8,22.3,00.0,32.7,25.5,12.0,0000.0,0000.67,0000.45,0000.39
2023-01-15 07:07:00,,0814.0,4.99,0.00,23.7,22.2,00.0,32.7,25.4,12.0,0000.0,0000.69,0000.46,0000.40
2023-01-15 07:08:00,,0814.0,4.99,0.00,23.7,22.1,00.0,32.7,25.3,12.5,0000.0,0000.74,0000.48,0000.41
2023-01-15 07:09:00,,0814.0,5.00,0.00,23.7,21.8,00.0,32.7,25.2,12.7,0000.0,0000.87,0000.56,0000.47
2023-01-15 07:10:00,,0814.0,4.99,0.00,23.6,21.7,00.0,32.7,25.2,12.5,0000.0,0000.91,0000.59,0000.50
2023-01-15 07:11:00,,0814.0,5.00,0.00,23.5,21.6,00.0,32.6,25.1,12.6,0000.0,0000.95,0000.62,0000.52
2023-01-15 07:12:00,,0814.1,5.01,0.00,23.5,21.6,00.0,32.6,25.1,12.7,0000.0,0000.99,0000.66,0000.56
2023-01-15 07:13:00,,0814.1,5.00,0.00,23.5,21.5,00.0,32.6,25.0,12.6,0000.0,0001.04,0000.71,0000.62
2023-01-15 07:14:00,,0814.1,4.99,0.00,23.4,21.4,00.0,32.6,25.0,12.6,0000.0,0001.18,0000.81,0000.69
2023-01-15 07:15:00,,0814.0,5.00,0.00,23.4,21.4,00.0,32.5,25.0,12.7,0000.0,0002.25,0000.89,0000.78
2023-01-15 07:16:00,,0814.4,5.01,0.00,23.4,21.4,00.0,32.5,25.0,12.5,0000.0,0002.31,0000.95,0000.84
2023-01-15 07:17:00,,0814.0,5.00,0.00,23.3,21.4,00.0,32.5,24.9,12.7,0000.0,0002.34,0001.02,0000.91
2023-01-15 07:18:00,,0814.2,5.00,0.00,23.3,21.3,00.0,32.4,24.9,12.8,0000.0,0002.42,0001.12,0001.02
2023-01-15 07:19:00,,0814.1,5.00,0.00,23.3,21.3,00.0,32.4,24.9,12.8,0000.0,0002.49,0001.19,0001.10
2023-01-15 07:20:00,,0814.2,5.01,0.00,23.2,21.2,00.0,32.4,24.8,12.7,0000.0,0002.48,0001.21,0001.13
2023-01-15 07:21:00,,0813.9,5.00,0.00,23.2,21.2,00.0,32.4,24.8,12.7,0000.0,0002.54,0001.24,0001.14
2023-01-15 07:22:00,,0813.9,5.00,0.00,23.2,21.2,00.0,32.3,24.8,12.7,0000.0,0002.58,0001.27,0001.16
2023-01-15 07:23:00,,0813.9,5.00,0.00,23.2,21.3,00.0,32.3,24.8,12.8,0000.0,0002.65,0001.30,0001.18
2023-01-15 07:24:00,,0813.9,5.00,0.00,23.2,21.3,00.0,32.3,24.8,12.7,0000.0,0002.73,0001.32,0001.18
2023-01-15 07:25:00,,0813.9,5.00,0.00,23.1,21.4,00.0,32.2,24.8,12.8,0000.0,0002.70,0001.28,0001.15
2023-01-15 07:26:00,,0813.9,5.00,0.00,23.2,21.5,00.0,32.2,24.8,12.6,0000.0,0002.14,0001.22,0001.10
2023-01-15 07:27:00,,0813.9,5.00,0.00,23.2,21.6,00.0,32.2,24.9,12.5,0000.0,0001.64,0001.19,0001.03
2023-01-15 07:28:00,,0813.8,4.99,0.00,23.1,21.6,00.0,32.2,24.8,12.4,0000.0,0001.62,0001.15,0000.98
2023-01-15 07:29:00,,0813.8,4.99,0.00,23.1,21.6,00.0,32.2,24.8,12.3,0000.0,0001.48,0001.05,0000.89
2023-01-15 07:30:00,,0814.2,5.01,0.00,23.1,21.5,00.0,32.2,24.7,12.4,0000.0,0001.37,0000.95,0000.79
2023-01-15 07:31:00,,0814.3,4.99,0.00,23.1,21.4,00.0,32.1,24.7,12.4,0000.0,0001.38,0000.91,0000.73
2023-01-15 07:32:00,,0814.3,5.01,0.00,23.0,21.3,00.0,32.1,24.7,12.4,0000.0,0001.30,0000.84,0000.67
2023-01-15 07:33:00,,0814.2,5.00,0.00,23.0,21.3,00.0,32.1,24.7,12.5,0000.0,0001.26,0000.81,0000.64
2023-01-15 07:34:00,,0813.9,5.02,0.00,23.0,21.4,00.0,32.1,24.7,12.7,0000.0,0001.18,0000.76,0000.60
2023-01-15 07:35:00,,0813.8,5.02,0.00,23.0,21.6,00.0,32.1,24.8,12.5,0000.0,0001.05,0000.72,0000.57
2023-01-15 07:36:00,,0813.9,5.01,0.00,23.0,21.6,00.0,32.1,24.8,12.4,0000.0,0000.99,0000.68,0000.54
2023-01-15 07:37:00,,0814.0,4.99,0.00,23.0,21.6,00.0,32.0,24.8,12.4,0000.0,0000.99,0000.66,0000.52
2023-01-15 07:38:00,,0813.8,4.98,0.00,23.1,21.7,00.0,32.0,24.8,12.4,0000.0,0000.92,0000.62,0000.50
2023-01-15 07:39:00,,0814.0,5.00,0.00,23.1,21.8,00.0,32.0,24.8,12.4,0000.0,0000.88,0000.60,0000.50
2023-01-15 07:40:00,,0814.2,5.01,0.00,23.1,21.8,00.0,32.0,24.8,12.4,0000.0,0000.89,0000.60,0000.50
2023-01-15 07:41:00,,0814.3,5.00,0.00,23.1,21.9,00.0,32.0,24.9,12.4,0000.0,0000.89,0000.60,0000.50
2023-01-15 07:42:00,,0814.1,4.99,0.00,23.1,21.9,00.0,32.0,24.9,12.4,0000.0,0000.82,0000.58,0000.51
2023-01-15 07:43:00,,0814.1,5.00,0.00,23.2,21.9,00.0,32.0,24.9,12.4,0000.0,0000.82,0000.59,0000.51
2023-01-15 07:44:00,,0813.9,5.00,0.00,23.2,22.0,00.0,32.0,24.9,12.3,0000.0,0000.82,0000.59,0000.51
2023-01-15 07:45:00,,0814.2,5.00,0.00,23.2,22.0,00.0,32.0,24.9,12.3,0000.0,0000.90,0000.62,0000.51
2023-01-15 07:46:00,,0814.0,4.99,0.00,23.2,22.0,00.0,32.0,25.0,12.3,0000.0,0000.98,0000.64,0000.51
2023-01-15 07:47:00,,0814.2,5.00,0.00,23.2,22.0,00.0,32.1,25.0,12.3,0000.0,0000.98,0000.64,0000.51
2023-01-15 07:48:00,,0814.0,5.01,0.00,23.2,22.0,00.0,32.1,25.0,12.3,0000.0,0001.00,0000.66,0000.51
2023-01-15 07:49:00,,0814.2,5.02,0.00,23.2,22.0,00.0,32.1,25.0,12.3,0000.0,0001.02,0000.68,0000.52
2023-01-15 07:50:00,,0814.2,4.99,0.00,23.3,22.0,00.0,32.1,25.0,12.3,0000.0,0001.00,0000.67,0000.53
2023-01-15 07:51:00,,0814.2,4.98,0.00,23.3,22.0,00.0,32.1,25.0,12.3,0000.0,0001.00,0000.67,0000.53
2023-01-15 07:52:00,,0814.2,4.99,0.00,23.3,22.1,00.0,32.1,25.0,12.4,0000.0,0001.05,0000.70,0000.55
2023-01-15 07:53:00,,0813.9,5.02,0.00,23.3,22.1,00.0,32.1,25.0,12.3,0000.0,0001.07,0000.72,0000.57
2023-01-15 07:54:00,,0813.7,5.00,0.00,23.3,22.1,00.0,32.1,25.0,12.3,0000.0,0001.16,0000.71,0000.57
2023-01-15 07:55:00,,0813.8,5.00,0.00,23.3,22.1,00.0,32.1,25.1,12.2,0000.0,0001.14,0000.71,0000.57
2023-01-15 07:56:00,,0814.1,4.98,0.00,23.3,22.1,00.0,32.1,25.0,12.2,0000.0,0001.05,0000.67,0000.57
2023-01-15 07:57:00,,0814.1,5.00,0.00,23.3,22.1,00.0,32.1,25.0,12.2,0000.0,0001.04,0000.68,0000.57
2023-01-15 07:58:00,,0814.1,5.00,0.00,23.3,22.1,00.0,32.1,25.0,12.2,0000.0,0001.08,0000.68,0000.57
2023-01-15 07:59:00,,0814.0,5.00,0.00,23.4,22.1,00.0,32.2,25.0,12.3,0000.0,0001.07,0000.68,0000.57
